When you browse on this site, cookies collect data to enhance your experience and personalize the content and advertising you see.
Visit our Privacy Policy to learn more. By continuing to use the site, you agree to this use of cookies and data.
  • în România
  • Lista ţărilor
  • Pe 7 zile
  • Temperatura apei
  • Meteo pe hartă
  • Widget-uri
  • user-avatar
    Intrare

    Meteo pe oră la Siemianowice Śląskie

    Astăzi, 24 August, Sâmbătă

    Timp Temperatura Precipitaţii Vânt Presiune Umiditate
    00:00 +18°C° 0 mm 3 m/s 744 mmHg 83%
    01:00 +18°C° 0 mm 3 m/s 744 mmHg 83%
    02:00 +18°C° 0 mm 3 m/s 744 mmHg 83%
    03:00 +17°C° 0 mm 3 m/s 744 mmHg 82%
    04:00 +17°C° 0 mm 3 m/s 744 mmHg 82%
    05:00 +18°C° 0 mm 3 m/s 744 mmHg 79%
    06:00 +18°C° 0 mm 4 m/s 744 mmHg 75%
    07:00 +19°C° 0 mm 4 m/s 744 mmHg 72%
    08:00 +21°C° 0 mm 4 m/s 744 mmHg 68%
    09:00 +22°C° 0 mm 4 m/s 744 mmHg 63%
    10:00 +25°C° 0 mm 5 m/s 744 mmHg 58%
    11:00 +26°C° 0 mm 4 m/s 744 mmHg 56%
    12:00 +27°C° 0 mm 4 m/s 743 mmHg 54%
    13:00 +28°C° 0 mm 4 m/s 743 mmHg 52%
    14:00 +27°C° 0 mm 4 m/s 743 mmHg 53%
    15:00 +27°C° 0 mm 5 m/s 743 mmHg 54%
    16:00 +27°C° 0 mm 5 m/s 743 mmHg 55%
    17:00 +26°C° 0 mm 4 m/s 742 mmHg 60%
    18:00 +23°C° 0 mm 4 m/s 742 mmHg 64%
    19:00 +22°C° 0 mm 4 m/s 742 mmHg 69%
    20:00 +22°C° 0 mm 4 m/s 742 mmHg 71%
    21:00 +21°C° 0 mm 4 m/s 742 mmHg 72%
    22:00 +20°C° 0 mm 4 m/s 742 mmHg 74%
    23:00 +20°C° 0 mm 4 m/s 742 mmHg 75%

    Mâine, 25 August, Duminică

    Timp Temperatura Precipitaţii Vânt Presiune Umiditate
    00:00 +20°C° 0 mm 4 m/s 742 mmHg 75%
    01:00 +19°C° 0 mm 4 m/s 742 mmHg 76%
    02:00 +19°C° 0 mm 4 m/s 742 mmHg 77%
    03:00 +18°C° 0 mm 4 m/s 742 mmHg 77%
    04:00 +18°C° 0 mm 4 m/s 742 mmHg 78%
    05:00 +18°C° 0 mm 4 m/s 742 mmHg 76%
    06:00 +18°C° 0 mm 4 m/s 742 mmHg 74%
    07:00 +19°C° 0 mm 4 m/s 742 mmHg 72%
    08:00 +21°C° 0 mm 4 m/s 742 mmHg 68%
    09:00 +22°C° 0 mm 4 m/s 742 mmHg 64%
    10:00 +25°C° 0 mm 4 m/s 742 mmHg 60%
    11:00 +26°C° 0 mm 4 m/s 742 mmHg 58%
    12:00 +27°C° 0 mm 4 m/s 742 mmHg 56%
    13:00 +28°C° 0 mm 3 m/s 741 mmHg 54%
    14:00 +28°C° 0 mm 3 m/s 741 mmHg 55%
    15:00 +28°C° 0 mm 3 m/s 741 mmHg 57%
    16:00 +28°C° 0 mm 3 m/s 741 mmHg 58%
    17:00 +27°C° 0 mm 3 m/s 741 mmHg 64%
    18:00 +26°C° 0 mm 3 m/s 741 mmHg 70%
    19:00 +24°C° 0 mm 3 m/s 741 mmHg 76%
    20:00 +24°C° 0 mm 2 m/s 741 mmHg 79%
    21:00 +23°C° 0 mm 2 m/s 741 mmHg 82%
    22:00 +21°C° 0 mm 2 m/s 741 mmHg 85%
    23:00 +21°C° 0 mm 2 m/s 741 mmHg 87%

    Poimâine, 26 August, Luni

    Timp Temperatura Precipitaţii Vânt Presiune Umiditate
    00:00 +21°C° 0 mm 2 m/s 741 mmHg 88%
    01:00 +20°C° 0 mm 2 m/s 741 mmHg 89%
    02:00 +20°C° 0 mm 2 m/s 741 mmHg 90%
    03:00 +19°C° 0 mm 2 m/s 740 mmHg 91%
    04:00 +19°C° 0 mm 2 m/s 740 mmHg 92%
    05:00 +20°C° 0 mm 2 m/s 740 mmHg 87%
    06:00 +21°C° 0 mm 2 m/s 740 mmHg 83%
    07:00 +23°C° 0 mm 1 m/s 741 mmHg 79%
    08:00 +25°C° 0 mm 1 m/s 741 mmHg 70%
    09:00 +27°C° 0 mm 1 m/s 741 mmHg 62%
    10:00 +29°C° 0 mm 1 m/s 741 mmHg 54%
    11:00 +30°C° 0 mm 1 m/s 741 mmHg 49%
    12:00 +31°C° 0 mm 1 m/s 741 mmHg 45%
    13:00 +33°C° 0 mm 1 m/s 741 mmHg 41%
    14:00 +32°C° 0 mm 1 m/s 741 mmHg 41%
    15:00 +32°C° 0 mm 1 m/s 741 mmHg 41%
    16:00 +32°C° 0 mm 1 m/s 740 mmHg 41%
    17:00 +30°C° 0 mm 2 m/s 740 mmHg 48%
    18:00 +29°C° 0 mm 2 m/s 740 mmHg 54%
    19:00 +27°C° 0 mm 2 m/s 740 mmHg 61%
    20:00 +26°C° 0 mm 2 m/s 740 mmHg 64%
    21:00 +25°C° 0 mm 2 m/s 740 mmHg 68%
    22:00 +25°C° 0 mm 2 m/s 740 mmHg 71%
    23:00 +24°C° 0 mm 2 m/s 740 mmHg 73%

    27 August, Marţi

    Timp Temperatura Precipitaţii Vânt Presiune Umiditate
    00:00 +24°C° 0 mm 1 m/s 740 mmHg 74%
    01:00 +23°C° 0 mm 1 m/s 740 mmHg 76%
    02:00 +23°C° 0.1 mm 1 m/s 740 mmHg 78%
    03:00 +23°C° 0.1 mm 1 m/s 740 mmHg 79%
    04:00 +22°C° 0.1 mm 1 m/s 740 mmHg 80%
    05:00 +23°C° 0 mm 1 m/s 740 mmHg 77%
    06:00 +24°C° 0 mm 1 m/s 740 mmHg 75%
    07:00 +24°C° 0 mm 1 m/s 741 mmHg 72%
    08:00 +26°C° 0 mm 1 m/s 741 mmHg 65%
    09:00 +28°C° 0 mm 1 m/s 741 mmHg 58%
    10:00 +30°C° 0 mm 1 m/s 741 mmHg 51%
    11:00 +31°C° 0 mm 1 m/s 741 mmHg 47%
    12:00 +32°C° 0 mm 1 m/s 741 mmHg 43%
    13:00 +33°C° 0 mm 1 m/s 741 mmHg 39%
    14:00 +34°C° 0 mm 2 m/s 741 mmHg 39%
    15:00 +34°C° 0 mm 2 m/s 740 mmHg 40%
    16:00 +34°C° 0 mm 2 m/s 740 mmHg 41%
    17:00 +31°C° 0 mm 2 m/s 740 mmHg 48%
    18:00 +29°C° 0 mm 2 m/s 740 mmHg 54%
    19:00 +27°C° 0 mm 3 m/s 740 mmHg 61%
    20:00 +27°C° 0 mm 3 m/s 740 mmHg 65%
    21:00 +26°C° 0 mm 2 m/s 740 mmHg 68%
    22:00 +25°C° 0 mm 2 m/s 740 mmHg 72%
    23:00 +25°C° 0 mm 2 m/s 740 mmHg 74%

    28 August, Miercuri

    Timp Temperatura Precipitaţii Vânt Presiune Umiditate
    00:00 +24°C° 0 mm 2 m/s 740 mmHg 76%
    01:00 +24°C° 0 mm 2 m/s 740 mmHg 77%
    02:00 +23°C° 0.1 mm 2 m/s 740 mmHg 78%
    03:00 +23°C° 0.1 mm 1 m/s 739 mmHg 79%
    04:00 +22°C° 0.1 mm 1 m/s 739 mmHg 80%
    05:00 +23°C° 0.1 mm 1 m/s 739 mmHg 77%
    06:00 +24°C° 0.1 mm 1 m/s 739 mmHg 74%
    07:00 +25°C° 0.1 mm 1 m/s 739 mmHg 71%
    08:00 +27°C° 0 mm 1 m/s 739 mmHg 63%
    09:00 +29°C° 0 mm 1 m/s 739 mmHg 56%
    10:00 +31°C° 0 mm 1 m/s 739 mmHg 49%
    11:00 +32°C° 0 mm 1 m/s 739 mmHg 45%
    12:00 +33°C° 0 mm 1 m/s 739 mmHg 41%
    13:00 +34°C° 0 mm 1 m/s 739 mmHg 37%
    14:00 +34°C° 0 mm 2 m/s 738 mmHg 38%
    15:00 +34°C° 0 mm 2 m/s 738 mmHg 40%
    16:00 +32°C° 0 mm 2 m/s 738 mmHg 42%
    17:00 +31°C° 0 mm 3 m/s 738 mmHg 48%
    18:00 +29°C° 0 mm 3 m/s 738 mmHg 53%
    19:00 +28°C° 0 mm 3 m/s 738 mmHg 59%
    20:00 +27°C° 0 mm 3 m/s 738 mmHg 63%
    21:00 +26°C° 0 mm 3 m/s 738 mmHg 67%
    22:00 +25°C° 0 mm 2 m/s 738 mmHg 71%
    23:00 +25°C° 0 mm 2 m/s 737 mmHg 72%

    29 August, Joi

    Timp Temperatura Precipitaţii Vânt Presiune Umiditate
    00:00 +24°C° 0 mm 2 m/s 737 mmHg 73%
    01:00 +24°C° 0 mm 1 m/s 737 mmHg 75%
    02:00 +23°C° 0.1 mm 1 m/s 737 mmHg 76%
    03:00 +23°C° 0.1 mm 1 m/s 737 mmHg 76%
    04:00 +23°C° 0.1 mm 1 m/s 737 mmHg 77%
    05:00 +23°C° 0.6 mm 1 m/s 737 mmHg 75%
    06:00 +24°C° 0.6 mm 1 m/s 737 mmHg 73%
    07:00 +25°C° 0.6 mm 1 m/s 737 mmHg 71%
    08:00 +26°C° 0 mm 1 m/s 737 mmHg 64%
    09:00 +28°C° 0 mm 1 m/s 737 mmHg 57%
    10:00 +30°C° 0 mm 1 m/s 737 mmHg 49%
    11:00 +31°C° 0 mm 1 m/s 737 mmHg 46%
    12:00 +32°C° 0 mm 1 m/s 737 mmHg 43%
    13:00 +33°C° 0 mm 1 m/s 737 mmHg 39%
    14:00 +33°C° 0 mm 1 m/s 737 mmHg 40%
    15:00 +32°C° 0 mm 1 m/s 736 mmHg 41%
    16:00 +32°C° 0 mm 2 m/s 736 mmHg 43%
    17:00 +30°C° 0.8 mm 2 m/s 736 mmHg 52%
    18:00 +27°C° 0.8 mm 2 m/s 736 mmHg 61%
    19:00 +25°C° 0.8 mm 2 m/s 736 mmHg 71%
    20:00 +24°C° 1.1 mm 2 m/s 736 mmHg 73%
    21:00 +23°C° 1.1 mm 2 m/s 736 mmHg 75%
    22:00 +23°C° 1.1 mm 2 m/s 737 mmHg 77%
    23:00 +21°C° 0 mm 2 m/s 737 mmHg 78%
    Arată mai mult